This demonstration page uses our WeatherBlox Daily Observations layout. Learn more.

Left ArrowRight Arrow

Hourly Observations for September 26, 2019

Temp ( °F °C ) Dew Point ( °F °C ) Humidity (%) Winds ( mph kmh ) Pressure ( in mb ) Visibility ( mi km ) Precip ( " mm )
12:53 am 00:53 Clear 70 21.1 65 18.3 84 84 Calm 29.89 1012 10 16 0.00 0.00
1:53 am 01:53 Clear 69 20.6 64 17.8 84 84 Calm 29.88 1012 10 16 0.00 0.00
2:53 am 02:53 Clear 68 20 64 17.8 87 87 Calm 29.87 1012 10 16 0.00 0.00
3:53 am 03:53 Clear 67 19.4 64 17.8 91 91 Calm 29.86 1011 10 16 0.00 0.00
4:53 am 04:53 Mostly Cloudy 68 20 64 17.8 87 87 Calm 29.87 1012 10 16 0.00 0.00
5:53 am 05:53 Mostly Cloudy 68 20 64 17.8 87 87 Calm 29.88 1012 10 16 0.00 0.00
6:53 am 06:53 Mostly Cloudy 71 21.7 65 18.3 81 81 Calm 29.90 1013 10 16 0.00 0.00
7:53 am 07:53 Partly Cloudy 71 21.7 66 18.9 84 84 Calm 29.92 1013 10 16 0.00 0.00
8:53 am 08:53 Sunny 75 23.9 66 18.9 74 74 Calm 29.93 1014 10 16 0.00 0.00
9:53 am 09:53 Sunny 81 27.2 67 19.4 62 62 Calm 29.94 1014 10 16 0.00 0.00
10:53 am 10:53 Sunny 88 31.1 67 19.4 50 50 NW 7 11 29.94 1014 10 16 0.00 0.00
11:53 am 11:53 Sunny 88 31.1 67 19.4 50 50 N 8 13 29.94 1014 10 16 0.00 0.00
12:53 pm 12:53 Sunny 90 32.2 67 19.4 47 47 WNW 7 11 29.92 1013 10 16 0.00 0.00
1:53 pm 13:53 Partly Cloudy 92 33.3 66 18.9 43 43 NW 8 13 29.90 1013 10 16 0.00 0.00
2:53 pm 14:53 Mostly Cloudy 91 32.8 65 18.3 42 42 undefined N/A 29.88 1012 10 16 0.00 0.00
3:53 pm 15:53 Sunny 92 33.3 64 17.8 40 40 WSW 6 9 29.87 1011 10 16 0.00 0.00
4:53 pm 16:53 Mostly Cloudy 80 26.7 71 21.7 74 74 WNW 9 15 29.88 1012 10 16 0.05 1.27
5:53 pm 17:53 Mostly Sunny 86 30 75 23.9 70 70 NNE 3 6 29.86 1011 10 16 0.00 0.00
6:53 pm 18:53 Sunny 86 30 70 21.1 59 59 Calm 29.85 1011 10 16 0.00 0.00
7:53 pm 19:53 Clear with Mist and Fog 79 26.1 75 23.9 88 88 Calm 29.87 1012 6 10 0.00 0.00
8:53 pm 20:53 Clear 78 25.6 73 22.8 85 85 Calm 29.89 1012 10 16 0.00 0.00
9:53 pm 21:53 Clear 75 23.9 72 22.2 90 90 Calm 29.91 1013 10 16 0.00 0.00
10:53 pm 22:53 Clear 74 23.3 70 21.1 88 88 Calm 29.91 1013 10 16 0.00 0.00
11:53 pm 23:53 Clear 72 22.2 70 21.1 94 94 Calm 29.92 1013 8 13 0.00 0.00

Powered by AerisWeather